| time (UTC) | temp F | wind direction | speed MPH | gust MPH | rain 1hr in | rain 24hr in | rain mn in | humidity % | barometer mb |
| 20260903035003 | 74 | 96 | 2.0 | 4.0 | 0.00 | 0.03 | 0.03 | 88 | 1010.5 |
| 20260903025004 | 76 | 95 | 1.0 | 5.0 | 0.00 | 0.03 | 0.03 | 85 | 1010.7 |
| 20260903024003 | 76 | 87 | 1.0 | 2.0 | 0.00 | 0.03 | 0.03 | 85 | 1010.6 |
| 20260903021004 | 77 | 92 | 2.0 | 6.0 | 0.00 | 0.03 | 0.03 | 82 | 1010.4 |
| 20260903020004 | 77 | 97 | 1.0 | 2.0 | 0.00 | 0.03 | 0.03 | 81 | 1010.4 |
| 20260903015004 | 78 | 91 | 2.0 | 6.0 | 0.00 | 0.03 | 0.03 | 81 | 1010.2 |
| 20260903013004 | 78 | 100 | 1.0 | 3.0 | 0.00 | 0.03 | 0.03 | 79 | 1010.1 |
| 20260903004003 | 80 | 103 | 2.0 | 4.0 | 0.00 | 0.03 | 0.03 | 76 | 1010.2 |
| 20260902234004 | 83 | 128 | 3.0 | 4.0 | 0.00 | 0.03 | 0.03 | 72 | 1010.2 |
| 20260902232003 | 83 | 94 | 4.0 | 10.0 | 0.00 | 0.03 | 0.03 | 71 | 1010.2 |
| 20260902231004 | 83 | 147 | 4.0 | 5.0 | 0.00 | 0.03 | 0.03 | 71 | 1010.1 |
| 20260902225004 | 84 | 124 | 5.0 | 8.0 | 0.00 | 0.03 | 0.03 | 70 | 1010.1 |
| 20260902224005 | 84 | 126 | 4.0 | 5.0 | 0.00 | 0.03 | 0.03 | 70 | 1010.1 |
| 20260902223005 | 84 | 131 | 2.0 | 5.0 | 0.00 | 0.03 | 0.03 | 70 | 1010.1 |
| 20260902220005 | 84 | 129 | 6.0 | 10.0 | 0.00 | 0.03 | 0.03 | 69 | 1010.4 |
| 20260902215004 | 84 | 89 | 5.0 | 9.0 | 0.00 | 0.03 | 0.03 | 68 | 1010.4 |
| 20260902212003 | 84 | 58 | 5.0 | 10.0 | 0.00 | 0.03 | 0.03 | 68 | 1010.7 |
| 20260902210004 | 84 | 73 | 4.0 | 7.0 | 0.00 | 0.03 | 0.03 | 68 | 1010.9 |
| 20260902205004 | 84 | 81 | 3.0 | 9.0 | 0.00 | 0.03 | 0.03 | 68 | 1010.9 |
| 20260902202004 | 84 | 73 | 3.0 | 5.0 | 0.00 | 0.03 | 0.03 | 67 | 1011.2 |
| 20260902201004 | 84 | 105 | 3.0 | 6.0 | 0.00 | 0.03 | 0.03 | 68 | 1011.2 |
| 20260902192004 | 83 | 87 | 4.0 | 7.0 | 0.00 | 0.03 | 0.03 | 70 | 1011.6 |
| 20260902191003 | 83 | 114 | 3.0 | 5.0 | 0.00 | 0.03 | 0.03 | 70 | 1011.8 |
| 20260902184004 | 82 | 104 | 2.0 | 5.0 | 0.00 | 0.03 | 0.03 | 71 | 1012.1 |
| 20260902180007 | 81 | 90 | 2.0 | 4.0 | 0.00 | 0.03 | 0.03 | 71 | 1012.3 |
| 20260902175004 | 81 | 140 | 4.0 | 6.0 | 0.00 | 0.03 | 0.03 | 72 | 1012.6 |
| 20260902174004 | 80 | 136 | 2.0 | 5.0 | 0.00 | 0.03 | 0.03 | 72 | 1012.7 |
| 20260902165005 | 80 | 135 | 3.0 | 7.0 | 0.00 | 0.03 | 0.03 | 73 | 1012.8 |
| 20260902163005 | 78 | 59 | 4.0 | 6.0 | 0.00 | 0.03 | 0.03 | 73 | 1012.7 |
| 20260902160007 | 76 | 108 | 2.0 | 4.0 | 0.00 | 0.03 | 0.03 | 78 | 1012.6 |
| 20260902154004 | 76 | 79 | 1.0 | 4.0 | 0.00 | 0.03 | 0.03 | 78 | 1012.9 |
| 20260902143003 | 71 | 139 | 3.0 | 3.0 | 0.00 | 0.03 | 0.03 | 83 | 1013.1 |
| 20260902135003 | 67 | 83 | 0.0 | 0.0 | 0.00 | 0.03 | 0.03 | 89 | 1013.7 |
| 20260902132005 | 67 | 63 | 1.0 | 2.0 | 0.00 | 0.03 | 0.03 | 87 | 1013.1 |
| 20260902120005 | 63 | 9 | 2.0 | 3.0 | 0.00 | 0.03 | 0.03 | 93 | 1013.0 |
| 20260902103004 | 65 | 22 | 1.0 | 2.0 | 0.00 | 0.01 | 0.01 | 92 | 1012.5 |
| 20260902082004 | 66 | 82 | 0.0 | 1.0 | 0.00 | 0.00 | 0.00 | 88 | 1012.7 |
| 20260902081005 | 66 | 82 | 0.0 | 0.0 | 0.00 | 0.00 | 0.00 | 86 | 1013.3 |
| 20260902080006 | 67 | 82 | 0.0 | 0.0 | 0.00 | 0.00 | 0.00 | 85 | 1013.4 |
| 20260902075006 | 67 | 82 | 0.0 | 0.0 | 0.00 | 0.00 | 0.00 | 84 | 1013.2 |
| 20260902070006 | 68 | 106 | 0.0 | 0.0 | 0.00 | 0.00 | 0.00 | 83 | 1012.2 |
| 20260902065004 | 68 | 94 | 1.0 | 3.0 | 0.00 | 0.00 | 0.00 | 83 | 1012.3 |
| 20260902064004 | 69 | 79 | 0.0 | 2.0 | 0.00 | 0.00 | 0.00 | 82 | 1012.4 |
| 20260902060003 | 70 | 31 | 0.0 | 0.0 | 0.00 | 0.00 | 0.00 | 82 | 1013.0 |
| 20260902052005 | 70 | 7 | 4.0 | 7.0 | 0.00 | 0.00 | 0.00 | 72 | 1012.5 |
| 20260902051006 | 71 | 28 | 3.0 | 5.0 | 0.00 | 0.00 | 0.00 | 70 | 1012.4 |